| time (UTC) | temp F | wind direction | speed MPH | gust MPH | rain 1hr in | rain 24hr in | rain mn in | humidity % | barometer mb |
| 20260510145011 | 56 | 108 | 2.0 | 9.0 | 0.00 | 0.00 | 0.00 | 82 | 1031.3 |
| 20260510144544 | 56 | 107 | 2.0 | 9.0 | 0.00 | 0.00 | 0.00 | 82 | 1031.3 |
| 20260510144011 | 56 | 106 | 2.0 | 9.0 | 0.00 | 0.00 | 0.00 | 82 | 1031.4 |
| 20260510143516 | 56 | 104 | 1.0 | 9.0 | 0.00 | 0.00 | 0.00 | 82 | 1031.4 |
| 20260510143028 | 56 | 105 | 2.0 | 9.0 | 0.00 | 0.00 | 0.00 | 82 | 1031.4 |
| 20260510142523 | 56 | 108 | 2.0 | 7.0 | 0.00 | 0.00 | 0.00 | 82 | 1031.4 |
| 20260510142012 | 56 | 109 | 2.0 | 10.0 | 0.00 | 0.00 | 0.00 | 82 | 1031.3 |
| 20260510141528 | 56 | 107 | 1.0 | 10.0 | 0.00 | 0.00 | 0.00 | 82 | 1031.3 |
| 20260510141011 | 56 | 113 | 1.0 | 8.0 | 0.00 | 0.00 | 0.00 | 82 | 1031.3 |
| 20260510140510 | 56 | 111 | 1.0 | 8.0 | 0.00 | 0.00 | 0.00 | 82 | 1031.4 |
| 20260510140028 | 57 | 110 | 1.0 | 6.0 | 0.00 | 0.00 | 0.00 | 82 | 1031.5 |
| 20260510135510 | 57 | 110 | 1.0 | 7.0 | 0.00 | 0.00 | 0.00 | 82 | 1031.5 |
| 20260510135011 | 57 | 109 | 1.0 | 7.0 | 0.00 | 0.00 | 0.00 | 82 | 1031.4 |
| 20260510134530 | 57 | 109 | 1.0 | 7.0 | 0.00 | 0.00 | 0.00 | 82 | 1031.4 |
| 20260510134017 | 57 | 108 | 0.0 | 6.0 | 0.00 | 0.00 | 0.00 | 82 | 1031.3 |
| 20260510133510 | 57 | 0 | 1.0 | 8.0 | 0.00 | 0.00 | 0.00 | 82 | 1031.5 |
| 20260510133030 | 57 | 109 | 1.0 | 8.0 | 0.00 | 0.00 | 0.00 | 82 | 1031.5 |
| 20260510132511 | 57 | 0 | 1.0 | 8.0 | 0.00 | 0.00 | 0.00 | 82 | 1031.3 |
| 20260510132013 | 57 | 108 | 1.0 | 10.0 | 0.00 | 0.00 | 0.00 | 82 | 1031.3 |
| 20260510131528 | 57 | 0 | 2.0 | 10.0 | 0.00 | 0.00 | 0.00 | 82 | 1031.2 |
| 20260510131013 | 57 | 109 | 2.0 | 9.0 | 0.00 | 0.00 | 0.00 | 82 | 1031.3 |
| 20260510130511 | 57 | 110 | 1.0 | 9.0 | 0.00 | 0.00 | 0.00 | 82 | 1031.4 |
| 20260510130028 | 57 | 111 | 2.0 | 9.0 | 0.00 | 0.00 | 0.00 | 82 | 1031.4 |
| 20260510125512 | 57 | 113 | 1.0 | 6.0 | 0.00 | 0.00 | 0.00 | 81 | 1031.4 |
| 20260510125012 | 57 | 113 | 1.0 | 7.0 | 0.00 | 0.00 | 0.00 | 81 | 1031.4 |
| 20260510124528 | 56 | 0 | 1.0 | 7.0 | 0.00 | 0.00 | 0.00 | 81 | 1031.4 |
| 20260510124012 | 56 | 0 | 1.0 | 7.0 | 0.00 | 0.00 | 0.00 | 81 | 1031.4 |
| 20260510123517 | 56 | 107 | 2.0 | 7.0 | 0.00 | 0.00 | 0.00 | 81 | 1031.4 |
| 20260510123030 | 56 | 107 | 2.0 | 8.0 | 0.00 | 0.00 | 0.00 | 81 | 1031.5 |
| 20260510122514 | 56 | 104 | 2.0 | 8.0 | 0.00 | 0.00 | 0.00 | 81 | 1031.6 |
| 20260510122012 | 56 | 103 | 1.0 | 8.0 | 0.00 | 0.00 | 0.00 | 80 | 1031.6 |
| 20260510121527 | 56 | 109 | 2.0 | 7.0 | 0.00 | 0.00 | 0.00 | 80 | 1031.5 |
| 20260510121011 | 56 | 0 | 0.0 | 7.0 | 0.00 | 0.00 | 0.00 | 80 | 1031.5 |
| 20260510120512 | 56 | 0 | 2.0 | 7.0 | 0.00 | 0.00 | 0.00 | 80 | 1031.5 |
| 20260510120028 | 56 | 114 | 1.0 | 8.0 | 0.00 | 0.00 | 0.00 | 79 | 1031.4 |
| 20260510115512 | 56 | 0 | 1.0 | 8.0 | 0.00 | 0.00 | 0.00 | 79 | 1031.3 |
| 20260510115010 | 56 | 116 | 3.0 | 8.0 | 0.00 | 0.00 | 0.00 | 78 | 1031.3 |
| 20260510114527 | 55 | 0 | 1.0 | 7.0 | 0.00 | 0.00 | 0.00 | 76 | 1031.2 |
| 20260510114008 | 55 | 217 | 1.0 | 3.0 | 0.00 | 0.00 | 0.00 | 76 | 1031.3 |
| 20260510113510 | 55 | 0 | 0.0 | 2.0 | 0.00 | 0.00 | 0.00 | 75 | 1031.2 |
| 20260510113026 | 54 | 0 | 0.0 | 1.0 | 0.00 | 0.00 | 0.00 | 74 | 1031.3 |
| 20260510112508 | 54 | 0 | 0.0 | 3.0 | 0.00 | 0.00 | 0.00 | 74 | 1031.4 |
| 20260510112011 | 54 | 0 | 0.0 | 3.0 | 0.00 | 0.00 | 0.00 | 74 | 1031.4 |
| 20260510111529 | 54 | 0 | 0.0 | 1.0 | 0.00 | 0.00 | 0.00 | 73 | 1031.2 |
| 20260510111013 | 54 | 0 | 0.0 | 0.0 | 0.00 | 0.00 | 0.00 | 72 | 1031.3 |
| 20260510110511 | 54 | 0 | 0.0 | 0.0 | 0.00 | 0.00 | 0.00 | 72 | 1031.3 |
| 20260510110026 | 54 | 0 | 0.0 | 0.0 | 0.00 | 0.00 | 0.00 | 72 | 1031.4 |
| 20260510105510 | 54 | 0 | 0.0 | 1.0 | 0.00 | 0.00 | 0.00 | 72 | 1031.3 |
| 20260510105008 | 55 | 0 | 0.0 | 1.0 | 0.00 | 0.00 | 0.00 | 72 | 1031.3 |
| 20260510104529 | 55 | 0 | 0.0 | 0.0 | 0.00 | 0.00 | 0.00 | 71 | 1031.4 |
| 20260510104009 | 55 | 0 | 0.0 | 0.0 | 0.00 | 0.00 | 0.00 | 71 | 1031.5 |
| 20260510103510 | 55 | 0 | 0.0 | 0.0 | 0.00 | 0.00 | 0.00 | 71 | 1031.4 |
| 20260510103027 | 55 | 0 | 0.0 | 0.0 | 0.00 | 0.00 | 0.00 | 71 | 1031.4 |
| 20260510102509 | 55 | 0 | 0.0 | 0.0 | 0.00 | 0.00 | 0.00 | 70 | 1031.3 |
| 20260510102010 | 56 | 0 | 0.0 | 0.0 | 0.00 | 0.00 | 0.00 | 70 | 1031.4 |
| 20260510101528 | 56 | 0 | 0.0 | 0.0 | 0.00 | 0.00 | 0.00 | 70 | 1031.4 |
| 20260510101010 | 56 | 0 | 0.0 | 0.0 | 0.00 | 0.00 | 0.00 | 70 | 1031.4 |
| 20260510100509 | 56 | 0 | 0.0 | 0.0 | 0.00 | 0.00 | 0.00 | 70 | 1031.4 |
| 20260510100028 | 56 | 0 | 0.0 | 0.0 | 0.00 | 0.00 | 0.00 | 70 | 1031.4 |
| 20260510095511 | 56 | 0 | 0.0 | 0.0 | 0.00 | 0.00 | 0.00 | 70 | 1031.3 |
| 20260510095014 | 57 | 0 | 0.0 | 0.0 | 0.00 | 0.00 | 0.00 | 69 | 1031.4 |
| 20260510094528 | 57 | 0 | 0.0 | 0.0 | 0.00 | 0.00 | 0.00 | 69 | 1031.4 |
| 20260510094007 | 57 | 0 | 0.0 | 0.0 | 0.00 | 0.00 | 0.00 | 69 | 1031.3 |
| 20260510093512 | 57 | 0 | 0.0 | 0.0 | 0.00 | 0.00 | 0.00 | 69 | 1031.3 |
| 20260510093026 | 57 | 0 | 0.0 | 0.0 | 0.00 | 0.00 | 0.00 | 69 | 1031.2 |
| 20260510092507 | 57 | 0 | 0.0 | 0.0 | 0.00 | 0.00 | 0.00 | 69 | 1031.3 |
| 20260510092010 | 57 | 0 | 0.0 | 0.0 | 0.00 | 0.00 | 0.00 | 68 | 1031.3 |
| 20260510091528 | 58 | 0 | 0.0 | 0.0 | 0.00 | 0.00 | 0.00 | 68 | 1031.3 |
| 20260510091009 | 58 | 0 | 0.0 | 0.0 | 0.00 | 0.00 | 0.00 | 68 | 1031.3 |
| 20260510090510 | 58 | 0 | 0.0 | 0.0 | 0.00 | 0.00 | 0.00 | 68 | 1031.2 |
| 20260510090028 | 58 | 0 | 0.0 | 0.0 | 0.00 | 0.00 | 0.00 | 68 | 1031.0 |
| 20260510085508 | 59 | 0 | 0.0 | 0.0 | 0.00 | 0.00 | 0.00 | 68 | 1030.9 |
| 20260510085010 | 59 | 0 | 0.0 | 0.0 | 0.00 | 0.00 | 0.00 | 68 | 1030.9 |
| 20260510084543 | 59 | 0 | 0.0 | 0.0 | 0.00 | 0.00 | 0.00 | 67 | 1030.9 |
| 20260510084010 | 59 | 0 | 0.0 | 0.0 | 0.00 | 0.00 | 0.00 | 67 | 1030.8 |
| 20260510083512 | 59 | 0 | 0.0 | 0.0 | 0.00 | 0.00 | 0.00 | 67 | 1030.8 |
| 20260510083028 | 60 | 0 | 0.0 | 0.0 | 0.00 | 0.00 | 0.00 | 66 | 1030.8 |
| 20260510082508 | 60 | 0 | 0.0 | 0.0 | 0.00 | 0.00 | 0.00 | 66 | 1030.8 |
| 20260510082010 | 60 | 0 | 0.0 | 0.0 | 0.00 | 0.00 | 0.00 | 66 | 1030.8 |
| 20260510081534 | 61 | 0 | 0.0 | 0.0 | 0.00 | 0.00 | 0.00 | 66 | 1030.7 |
| 20260510081007 | 61 | 0 | 0.0 | 0.0 | 0.00 | 0.00 | 0.00 | 65 | 1030.6 |
| 20260510080508 | 61 | 0 | 0.0 | 0.0 | 0.00 | 0.00 | 0.00 | 65 | 1030.6 |
| 20260510080028 | 62 | 0 | 0.0 | 0.0 | 0.00 | 0.00 | 0.00 | 65 | 1030.5 |
| 20260510075508 | 62 | 0 | 0.0 | 0.0 | 0.00 | 0.00 | 0.00 | 65 | 1030.6 |
| 20260510075012 | 62 | 0 | 0.0 | 1.0 | 0.00 | 0.00 | 0.00 | 65 | 1030.5 |
| 20260510074528 | 62 | 0 | 0.0 | 2.0 | 0.00 | 0.00 | 0.00 | 65 | 1030.3 |
| 20260510074011 | 62 | 219 | 0.0 | 2.0 | 0.00 | 0.00 | 0.00 | 65 | 1030.2 |
| 20260510073510 | 63 | 0 | 0.0 | 2.0 | 0.00 | 0.00 | 0.00 | 65 | 1030.2 |
| 20260510073045 | 63 | 0 | 0.0 | 2.0 | 0.00 | 0.00 | 0.00 | 65 | 1030.3 |
| 20260510072511 | 63 | 0 | 0.0 | 0.0 | 0.00 | 0.00 | 0.00 | 64 | 1030.2 |
| 20260510072010 | 63 | 0 | 0.0 | 1.0 | 0.00 | 0.00 | 0.00 | 64 | 1030.3 |
| 20260510071529 | 63 | 0 | 0.0 | 1.0 | 0.00 | 0.00 | 0.00 | 64 | 1030.2 |
| 20260510071011 | 63 | 0 | 0.0 | 2.0 | 0.00 | 0.00 | 0.00 | 64 | 1030.2 |
| 20260510070511 | 63 | 0 | 0.0 | 3.0 | 0.00 | 0.00 | 0.00 | 63 | 1030.1 |
| 20260510070026 | 63 | 0 | 0.0 | 3.0 | 0.00 | 0.00 | 0.00 | 63 | 1030.2 |
| 20260510065515 | 64 | 0 | 0.0 | 3.0 | 0.00 | 0.00 | 0.00 | 63 | 1030.1 |
| 20260510065016 | 64 | 0 | 0.0 | 2.0 | 0.00 | 0.00 | 0.00 | 63 | 1030.0 |
| 20260510064527 | 64 | 0 | 0.0 | 4.0 | 0.00 | 0.00 | 0.00 | 63 | 1030.0 |
| 20260510064012 | 64 | 225 | 0.0 | 4.0 | 0.00 | 0.00 | 0.00 | 63 | 1030.0 |
| 20260510063510 | 64 | 226 | 0.0 | 3.0 | 0.00 | 0.00 | 0.00 | 63 | 1029.9 |
| 20260510063030 | 64 | 223 | 0.0 | 3.0 | 0.00 | 0.00 | 0.00 | 63 | 1029.9 |
| 20260510062513 | 64 | 0 | 0.0 | 3.0 | 0.00 | 0.00 | 0.00 | 63 | 1029.9 |
| 20260510062008 | 64 | 0 | 0.0 | 3.0 | 0.00 | 0.00 | 0.00 | 63 | 1029.8 |
| 20260510061528 | 64 | 0 | 1.0 | 3.0 | 0.00 | 0.00 | 0.00 | 62 | 1029.8 |
| 20260510061011 | 64 | 220 | 0.0 | 3.0 | 0.00 | 0.00 | 0.00 | 62 | 1029.8 |
| 20260510060511 | 64 | 221 | 0.0 | 3.0 | 0.00 | 0.00 | 0.00 | 62 | 1029.9 |
| 20260510060037 | 64 | 0 | 0.0 | 4.0 | 0.00 | 0.00 | 0.00 | 62 | 1029.9 |
| 20260510055511 | 65 | 223 | 1.0 | 4.0 | 0.00 | 0.00 | 0.00 | 62 | 1029.9 |
| 20260510055013 | 65 | 230 | 2.0 | 4.0 | 0.00 | 0.00 | 0.00 | 61 | 1029.8 |
| 20260510054528 | 65 | 0 | 1.0 | 4.0 | 0.00 | 0.00 | 0.00 | 61 | 1029.8 |
| 20260510054012 | 65 | 0 | 0.0 | 4.0 | 0.00 | 0.00 | 0.00 | 61 | 1029.9 |
| 20260510053512 | 65 | 219 | 0.0 | 4.0 | 0.00 | 0.00 | 0.00 | 61 | 1029.8 |
| 20260510053028 | 65 | 218 | 1.0 | 4.0 | 0.00 | 0.00 | 0.00 | 61 | 1029.8 |
| 20260510052510 | 65 | 0 | 0.0 | 2.0 | 0.00 | 0.00 | 0.00 | 62 | 1029.8 |
| 20260510052011 | 65 | 0 | 0.0 | 1.0 | 0.00 | 0.00 | 0.00 | 62 | 1029.8 |
| 20260510051528 | 65 | 0 | 0.0 | 1.0 | 0.00 | 0.00 | 0.00 | 62 | 1029.8 |
| 20260510051011 | 65 | 218 | 0.0 | 1.0 | 0.00 | 0.00 | 0.00 | 63 | 1029.8 |
| 20260510050508 | 65 | 0 | 0.0 | 1.0 | 0.00 | 0.00 | 0.00 | 62 | 1029.8 |
| 20260510050028 | 65 | 0 | 0.0 | 2.0 | 0.00 | 0.00 | 0.00 | 63 | 1029.9 |
| 20260510045511 | 65 | 0 | 0.0 | 2.0 | 0.00 | 0.00 | 0.00 | 62 | 1029.7 |
| 20260510045010 | 65 | 0 | 0.0 | 3.0 | 0.00 | 0.00 | 0.00 | 62 | 1029.8 |
| 20260510044530 | 65 | 0 | 0.0 | 3.0 | 0.00 | 0.00 | 0.00 | 61 | 1029.8 |
| 20260510044010 | 65 | 0 | 0.0 | 2.0 | 0.00 | 0.00 | 0.00 | 62 | 1029.9 |
| 20260510043511 | 65 | 0 | 0.0 | 2.0 | 0.00 | 0.00 | 0.00 | 61 | 1029.9 |
| 20260510043028 | 65 | 0 | 0.0 | 2.0 | 0.00 | 0.00 | 0.00 | 61 | 1030.0 |
| 20260510042511 | 65 | 0 | 0.0 | 3.0 | 0.00 | 0.00 | 0.00 | 62 | 1029.9 |
| 20260510042010 | 65 | 218 | 0.0 | 3.0 | 0.00 | 0.00 | 0.00 | 61 | 1029.9 |
| 20260510041535 | 65 | 218 | 1.0 | 3.0 | 0.00 | 0.00 | 0.00 | 62 | 1029.9 |
| 20260510041015 | 65 | 0 | 1.0 | 3.0 | 0.00 | 0.00 | 0.00 | 62 | 1030.0 |
| 20260510040511 | 65 | 0 | 0.0 | 3.0 | 0.00 | 0.00 | 0.00 | 63 | 1029.9 |
| 20260510040028 | 65 | 0 | 0.0 | 3.0 | 0.00 | 0.00 | 0.00 | 63 | 1029.9 |
| 20260510035511 | 65 | 0 | 0.0 | 2.0 | 0.00 | 0.00 | 0.00 | 64 | 1030.0 |
| 20260510035009 | 65 | 218 | 0.0 | 5.0 | 0.00 | 0.00 | 0.00 | 64 | 1030.0 |
| 20260510034529 | 64 | 0 | 1.0 | 5.0 | 0.00 | 0.00 | 0.00 | 64 | 1030.2 |
| 20260510034009 | 64 | 217 | 1.0 | 4.0 | 0.00 | 0.00 | 0.00 | 65 | 1030.2 |
| 20260510033512 | 64 | 0 | 0.0 | 2.0 | 0.00 | 0.00 | 0.00 | 65 | 1030.3 |
| 20260510033030 | 64 | 0 | 0.0 | 2.0 | 0.00 | 0.00 | 0.00 | 65 | 1030.4 |
| 20260510032512 | 64 | 0 | 0.0 | 3.0 | 0.00 | 0.00 | 0.00 | 66 | 1030.4 |
| 20260510032011 | 64 | 0 | 0.0 | 3.0 | 0.00 | 0.00 | 0.00 | 66 | 1030.4 |
| 20260510031530 | 64 | 213 | 0.0 | 3.0 | 0.00 | 0.00 | 0.00 | 66 | 1030.5 |
| 20260510031010 | 64 | 0 | 0.0 | 2.0 | 0.00 | 0.00 | 0.00 | 68 | 1030.4 |
| 20260510030511 | 64 | 0 | 0.0 | 2.0 | 0.00 | 0.00 | 0.00 | 68 | 1030.6 |
| 20260510030034 | 64 | 213 | 0.0 | 2.0 | 0.00 | 0.00 | 0.00 | 68 | 1030.6 |
| 20260510025508 | 64 | 0 | 0.0 | 0.0 | 0.00 | 0.00 | 0.00 | 68 | 1030.6 |
| 20260510025011 | 64 | 0 | 0.0 | 4.0 | 0.00 | 0.00 | 0.00 | 69 | 1030.8 |
| 20260510024534 | 63 | 0 | 0.0 | 4.0 | 0.00 | 0.00 | 0.00 | 70 | 1030.9 |
| 20260510024008 | 63 | 213 | 1.0 | 4.0 | 0.00 | 0.00 | 0.00 | 70 | 1030.9 |
| 20260510023511 | 63 | 0 | 0.0 | 1.0 | 0.00 | 0.00 | 0.00 | 71 | 1031.0 |
| 20260510023028 | 63 | 0 | 0.0 | 3.0 | 0.00 | 0.00 | 0.00 | 72 | 1031.1 |
| 20260510022511 | 63 | 0 | 0.0 | 4.0 | 0.00 | 0.00 | 0.00 | 72 | 1031.1 |
| 20260510022015 | 62 | 215 | 0.0 | 4.0 | 0.00 | 0.00 | 0.00 | 74 | 1031.1 |
| 20260510021534 | 62 | 0 | 0.0 | 3.0 | 0.00 | 0.00 | 0.00 | 76 | 1031.3 |
| 20260510021010 | 62 | 0 | 0.0 | 4.0 | 0.00 | 0.00 | 0.00 | 77 | 1031.3 |
| 20260510020511 | 61 | 0 | 0.0 | 4.0 | 0.00 | 0.00 | 0.00 | 78 | 1031.4 |
| 20260510020029 | 61 | 0 | 0.0 | 2.0 | 0.00 | 0.00 | 0.00 | 79 | 1031.5 |
| 20260510015517 | 60 | 0 | 0.0 | 3.0 | 0.00 | 0.00 | 0.00 | 81 | 1031.5 |
| 20260510015010 | 60 | 214 | 0.0 | 3.0 | 0.00 | 0.00 | 0.00 | 82 | 1031.5 |
| 20260510014530 | 60 | 214 | 0.0 | 3.0 | 0.00 | 0.00 | 0.00 | 84 | 1031.6 |
| 20260510014010 | 60 | 0 | 0.0 | 2.0 | 0.00 | 0.00 | 0.00 | 85 | 1031.8 |
| 20260510013510 | 59 | 0 | 0.0 | 2.0 | 0.00 | 0.00 | 0.00 | 86 | 1031.7 |
| 20260510013027 | 59 | 0 | 0.0 | 2.0 | 0.00 | 0.00 | 0.00 | 86 | 1031.7 |
| 20260510012534 | 59 | 0 | 0.0 | 2.0 | 0.00 | 0.00 | 0.00 | 87 | 1031.7 |
| 20260510012011 | 58 | 0 | 0.0 | 2.0 | 0.00 | 0.00 | 0.00 | 88 | 1031.7 |
| 20260510011530 | 58 | 214 | 0.0 | 2.0 | 0.00 | 0.00 | 0.00 | 88 | 1031.8 |
| 20260510011009 | 58 | 0 | 0.0 | 2.0 | 0.00 | 0.00 | 0.00 | 88 | 1031.7 |
| 20260510010509 | 58 | 0 | 0.0 | 2.0 | 0.00 | 0.00 | 0.00 | 89 | 1031.9 |
| 20260510010029 | 57 | 0 | 0.0 | 2.0 | 0.00 | 0.00 | 0.00 | 89 | 1031.9 |
| 20260510005511 | 57 | 0 | 0.0 | 2.0 | 0.00 | 0.00 | 0.00 | 89 | 1031.9 |
| 20260510005013 | 57 | 0 | 0.0 | 3.0 | 0.00 | 0.00 | 0.00 | 90 | 1032.0 |
| 20260510004528 | 56 | 0 | 0.0 | 3.0 | 0.00 | 0.00 | 0.00 | 90 | 1032.0 |
| 20260510004011 | 56 | 0 | 0.0 | 3.0 | 0.00 | 0.00 | 0.00 | 90 | 1031.8 |
| 20260510003510 | 56 | 214 | 1.0 | 6.0 | 0.00 | 0.00 | 0.00 | 89 | 1031.9 |
| 20260510003031 | 56 | 214 | 2.0 | 6.0 | 0.00 | 0.00 | 0.00 | 90 | 1031.8 |
| 20260510002511 | 56 | 225 | 2.0 | 6.0 | 0.00 | 0.00 | 0.00 | 90 | 1031.8 |
| 20260510002014 | 56 | 240 | 1.0 | 6.0 | 0.00 | 0.00 | 0.00 | 90 | 1031.9 |
| 20260510001528 | 56 | 257 | 1.0 | 4.0 | 0.00 | 0.00 | 0.00 | 90 | 1031.8 |
| 20260510001012 | 56 | 0 | 0.0 | 0.0 | 0.00 | 0.00 | 0.00 | 90 | 1031.9 |
| 20260510000510 | 55 | 0 | 0.0 | 0.0 | 0.00 | 0.00 | 0.00 | 90 | 1031.9 |
| 20260510000028 | 55 | 0 | 0.0 | 0.0 | 0.00 | 0.00 | 0.00 | 90 | 1031.8 |
| 20260509235510 | 55 | 0 | 0.0 | 0.0 | 0.00 | 0.00 | 0.00 | 90 | 1031.9 |
| 20260509235013 | 55 | 0 | 0.0 | 0.0 | 0.00 | 0.00 | 0.00 | 90 | 1031.8 |
| 20260509234536 | 55 | 0 | 0.0 | 0.0 | 0.00 | 0.00 | 0.00 | 90 | 1032.0 |
| 20260509234010 | 54 | 0 | 0.0 | 0.0 | 0.00 | 0.00 | 0.00 | 90 | 1032.0 |
| 20260509233510 | 54 | 0 | 0.0 | 0.0 | 0.00 | 0.00 | 0.00 | 90 | 1031.9 |
| 20260509233026 | 54 | 0 | 0.0 | 0.0 | 0.00 | 0.00 | 0.00 | 90 | 1031.9 |
| 20260509232508 | 54 | 0 | 0.0 | 0.0 | 0.00 | 0.00 | 0.00 | 90 | 1032.0 |
| 20260509232011 | 54 | 0 | 0.0 | 0.0 | 0.00 | 0.00 | 0.00 | 90 | 1031.9 |
| 20260509231528 | 53 | 0 | 0.0 | 0.0 | 0.00 | 0.00 | 0.00 | 90 | 1031.9 |
| 20260509231010 | 53 | 0 | 0.0 | 0.0 | 0.00 | 0.00 | 0.00 | 90 | 1031.9 |
| 20260509230515 | 53 | 0 | 0.0 | 0.0 | 0.00 | 0.00 | 0.00 | 89 | 1031.8 |
| 20260509230028 | 53 | 0 | 0.0 | 0.0 | 0.00 | 0.00 | 0.00 | 89 | 1031.8 |
| 20260509225511 | 53 | 0 | 0.0 | 0.0 | 0.00 | 0.00 | 0.00 | 89 | 1031.8 |
| 20260509225011 | 52 | 0 | 0.0 | 0.0 | 0.00 | 0.00 | 0.00 | 89 | 1031.8 |
| 20260509224528 | 52 | 0 | 0.0 | 0.0 | 0.00 | 0.00 | 0.00 | 89 | 1031.9 |
| 20260509224010 | 52 | 0 | 0.0 | 0.0 | 0.00 | 0.00 | 0.00 | 89 | 1031.8 |
| 20260509223511 | 52 | 0 | 0.0 | 0.0 | 0.00 | 0.00 | 0.00 | 89 | 1031.7 |
| 20260509223028 | 51 | 0 | 0.0 | 0.0 | 0.00 | 0.00 | 0.00 | 89 | 1031.7 |
| 20260509222510 | 51 | 0 | 0.0 | 0.0 | 0.00 | 0.00 | 0.00 | 89 | 1031.6 |
| 20260509222010 | 51 | 0 | 0.0 | 0.0 | 0.00 | 0.00 | 0.00 | 89 | 1031.7 |
| 20260509221530 | 51 | 0 | 0.0 | 0.0 | 0.00 | 0.00 | 0.00 | 89 | 1031.6 |
| 20260509221030 | 50 | 0 | 0.0 | 0.0 | 0.00 | 0.00 | 0.00 | 89 | 1031.6 |
| 20260509220508 | 50 | 0 | 0.0 | 0.0 | 0.00 | 0.00 | 0.00 | 89 | 1031.6 |
| 20260509220029 | 50 | 0 | 0.0 | 0.0 | 0.00 | 0.00 | 0.00 | 88 | 1031.4 |
| 20260509215511 | 50 | 0 | 0.0 | 0.0 | 0.00 | 0.00 | 0.00 | 89 | 1031.4 |
| 20260509215011 | 49 | 0 | 0.0 | 0.0 | 0.00 | 0.00 | 0.00 | 88 | 1031.2 |
| 20260509214529 | 49 | 0 | 0.0 | 0.0 | 0.00 | 0.00 | 0.00 | 88 | 1031.2 |
| 20260509214014 | 49 | 0 | 0.0 | 0.0 | 0.00 | 0.00 | 0.00 | 88 | 1031.2 |
| 20260509213513 | 49 | 0 | 0.0 | 0.0 | 0.00 | 0.00 | 0.00 | 88 | 1031.1 |
| 20260509213028 | 49 | 0 | 0.0 | 0.0 | 0.00 | 0.00 | 0.00 | 88 | 1031.0 |
| 20260509212510 | 49 | 0 | 0.0 | 0.0 | 0.00 | 0.00 | 0.00 | 88 | 1031.0 |
| 20260509212011 | 49 | 0 | 0.0 | 0.0 | 0.00 | 0.00 | 0.00 | 88 | 1031.0 |
| 20260509211530 | 49 | 0 | 0.0 | 0.0 | 0.00 | 0.00 | 0.00 | 88 | 1030.9 |
| 20260509211010 | 48 | 0 | 0.0 | 0.0 | 0.00 | 0.00 | 0.00 | 88 | 1030.8 |
| 20260509210509 | 48 | 0 | 0.0 | 0.0 | 0.00 | 0.00 | 0.00 | 88 | 1030.9 |
| 20260509210030 | 48 | 0 | 0.0 | 0.0 | 0.00 | 0.00 | 0.00 | 88 | 1030.9 |
| 20260509205508 | 48 | 0 | 0.0 | 0.0 | 0.00 | 0.00 | 0.00 | 88 | 1030.8 |
| 20260509205007 | 48 | 0 | 0.0 | 0.0 | 0.00 | 0.00 | 0.00 | 88 | 1030.8 |
| 20260509204529 | 48 | 0 | 0.0 | 0.0 | 0.00 | 0.00 | 0.00 | 87 | 1030.7 |
| 20260509204010 | 47 | 0 | 0.0 | 0.0 | 0.00 | 0.00 | 0.00 | 87 | 1030.6 |
| 20260509203508 | 47 | 0 | 0.0 | 0.0 | 0.00 | 0.00 | 0.00 | 87 | 1030.5 |
| 20260509203030 | 47 | 0 | 0.0 | 0.0 | 0.00 | 0.00 | 0.00 | 87 | 1030.4 |
| 20260509202511 | 47 | 0 | 0.0 | 0.0 | 0.00 | 0.00 | 0.00 | 87 | 1030.4 |
| 20260509202011 | 47 | 0 | 0.0 | 0.0 | 0.00 | 0.00 | 0.00 | 87 | 1030.3 |
| 20260509201528 | 47 | 0 | 0.0 | 0.0 | 0.00 | 0.00 | 0.00 | 87 | 1030.2 |
| 20260509201010 | 47 | 0 | 0.0 | 0.0 | 0.00 | 0.00 | 0.00 | 87 | 1030.2 |
| 20260509200513 | 47 | 0 | 0.0 | 0.0 | 0.00 | 0.00 | 0.00 | 87 | 1030.1 |
| 20260509200030 | 47 | 0 | 0.0 | 0.0 | 0.00 | 0.00 | 0.00 | 87 | 1030.0 |
| 20260509195515 | 47 | 0 | 0.0 | 0.0 | 0.00 | 0.00 | 0.00 | 87 | 1030.1 |
| 20260509195007 | 46 | 0 | 0.0 | 0.0 | 0.00 | 0.00 | 0.00 | 87 | 1030.1 |
| 20260509194530 | 46 | 0 | 0.0 | 0.0 | 0.00 | 0.00 | 0.00 | 87 | 1030.1 |
| 20260509194009 | 46 | 0 | 0.0 | 0.0 | 0.00 | 0.00 | 0.00 | 87 | 1030.0 |
| 20260509193512 | 46 | 0 | 0.0 | 0.0 | 0.00 | 0.00 | 0.00 | 87 | 1029.9 |
| 20260509193028 | 46 | 0 | 0.0 | 0.0 | 0.00 | 0.00 | 0.00 | 87 | 1029.9 |
| 20260509192510 | 46 | 0 | 0.0 | 0.0 | 0.00 | 0.00 | 0.00 | 87 | 1029.9 |
| 20260509192017 | 46 | 0 | 0.0 | 0.0 | 0.00 | 0.00 | 0.00 | 87 | 1029.9 |
| 20260509191529 | 46 | 0 | 0.0 | 0.0 | 0.00 | 0.00 | 0.00 | 87 | 1029.9 |
| 20260509191011 | 46 | 0 | 0.0 | 0.0 | 0.00 | 0.00 | 0.00 | 86 | 1029.8 |
| 20260509190511 | 46 | 0 | 0.0 | 0.0 | 0.00 | 0.00 | 0.00 | 86 | 1029.8 |
| 20260509190028 | 46 | 0 | 0.0 | 0.0 | 0.00 | 0.00 | 0.00 | 86 | 1029.8 |
| 20260509185511 | 46 | 0 | 0.0 | 0.0 | 0.00 | 0.00 | 0.00 | 86 | 1029.8 |
| 20260509185011 | 46 | 0 | 0.0 | 0.0 | 0.00 | 0.00 | 0.00 | 86 | 1029.7 |
| 20260509184537 | 46 | 0 | 0.0 | 0.0 | 0.00 | 0.00 | 0.00 | 86 | 1029.6 |
| 20260509184012 | 46 | 0 | 0.0 | 0.0 | 0.00 | 0.00 | 0.00 | 86 | 1029.6 |
| 20260509183508 | 46 | 0 | 0.0 | 0.0 | 0.00 | 0.00 | 0.00 | 86 | 1029.6 |
| 20260509183030 | 46 | 0 | 0.0 | 0.0 | 0.00 | 0.00 | 0.00 | 86 | 1029.6 |
| 20260509182509 | 46 | 0 | 0.0 | 0.0 | 0.00 | 0.00 | 0.00 | 86 | 1029.5 |
| 20260509182010 | 46 | 0 | 0.0 | 0.0 | 0.00 | 0.00 | 0.00 | 86 | 1029.5 |
| 20260509181528 | 46 | 0 | 0.0 | 0.0 | 0.00 | 0.00 | 0.00 | 86 | 1029.5 |
| 20260509181011 | 46 | 0 | 0.0 | 0.0 | 0.00 | 0.00 | 0.00 | 86 | 1029.5 |
| 20260509180508 | 46 | 0 | 0.0 | 0.0 | 0.00 | 0.00 | 0.00 | 86 | 1029.6 |
| 20260509180028 | 46 | 0 | 0.0 | 0.0 | 0.00 | 0.00 | 0.00 | 86 | 1029.6 |
| 20260509175510 | 46 | 0 | 0.0 | 0.0 | 0.00 | 0.00 | 0.00 | 86 | 1029.7 |
| 20260509175012 | 46 | 0 | 0.0 | 0.0 | 0.00 | 0.00 | 0.00 | 86 | 1029.7 |
| 20260509174534 | 46 | 0 | 0.0 | 0.0 | 0.00 | 0.00 | 0.00 | 86 | 1029.8 |
| 20260509174007 | 46 | 0 | 0.0 | 0.0 | 0.00 | 0.00 | 0.00 | 86 | 1029.7 |
| 20260509173507 | 47 | 0 | 0.0 | 0.0 | 0.00 | 0.00 | 0.00 | 85 | 1029.7 |
| 20260509173030 | 47 | 0 | 0.0 | 0.0 | 0.00 | 0.00 | 0.00 | 85 | 1029.8 |
| 20260509172510 | 47 | 0 | 0.0 | 0.0 | 0.00 | 0.00 | 0.00 | 85 | 1029.8 |
| 20260509172010 | 47 | 0 | 0.0 | 0.0 | 0.00 | 0.00 | 0.00 | 85 | 1029.9 |
| 20260509171530 | 47 | 0 | 0.0 | 0.0 | 0.00 | 0.00 | 0.00 | 85 | 1029.8 |
| 20260509171010 | 47 | 0 | 0.0 | 0.0 | 0.00 | 0.00 | 0.00 | 85 | 1029.8 |
| 20260509170507 | 47 | 0 | 0.0 | 0.0 | 0.00 | 0.00 | 0.00 | 85 | 1029.8 |
| 20260509170030 | 47 | 0 | 0.0 | 0.0 | 0.00 | 0.00 | 0.00 | 85 | 1029.8 |
| 20260509165509 | 47 | 0 | 0.0 | 0.0 | 0.00 | 0.00 | 0.00 | 85 | 1029.9 |
| 20260509165009 | 47 | 0 | 0.0 | 0.0 | 0.00 | 0.00 | 0.00 | 85 | 1029.9 |
| 20260509164528 | 47 | 0 | 0.0 | 0.0 | 0.00 | 0.00 | 0.00 | 85 | 1029.9 |
| 20260509164010 | 47 | 0 | 0.0 | 0.0 | 0.00 | 0.00 | 0.00 | 85 | 1029.9 |
| 20260509163510 | 47 | 0 | 0.0 | 0.0 | 0.00 | 0.00 | 0.00 | 85 | 1029.9 |
| 20260509163036 | 47 | 0 | 0.0 | 0.0 | 0.00 | 0.00 | 0.00 | 85 | 1030.0 |
| 20260509162511 | 47 | 0 | 0.0 | 0.0 | 0.00 | 0.00 | 0.00 | 85 | 1030.0 |
| 20260509162011 | 48 | 0 | 0.0 | 0.0 | 0.00 | 0.00 | 0.00 | 85 | 1030.1 |
| 20260509161529 | 48 | 0 | 0.0 | 0.0 | 0.00 | 0.00 | 0.00 | 85 | 1030.2 |
| 20260509161011 | 48 | 0 | 0.0 | 0.0 | 0.00 | 0.00 | 0.00 | 85 | 1030.2 |
| 20260509160509 | 48 | 0 | 0.0 | 0.0 | 0.00 | 0.00 | 0.00 | 85 | 1030.1 |
| 20260509160030 | 48 | 0 | 0.0 | 0.0 | 0.00 | 0.00 | 0.00 | 85 | 1030.3 |
| 20260509155509 | 48 | 0 | 0.0 | 0.0 | 0.00 | 0.00 | 0.00 | 85 | 1030.2 |
| 20260509155011 | 48 | 0 | 0.0 | 0.0 | 0.00 | 0.00 | 0.00 | 85 | 1030.2 |
| 20260509154527 | 48 | 0 | 0.0 | 0.0 | 0.00 | 0.00 | 0.00 | 84 | 1030.1 |
| 20260509154011 | 48 | 0 | 0.0 | 0.0 | 0.00 | 0.00 | 0.00 | 85 | 1030.2 |
| 20260509153511 | 48 | 0 | 0.0 | 0.0 | 0.00 | 0.00 | 0.00 | 85 | 1030.2 |
| 20260509153032 | 48 | 0 | 0.0 | 0.0 | 0.00 | 0.00 | 0.00 | 85 | 1030.2 |
| 20260509152510 | 48 | 0 | 0.0 | 0.0 | 0.00 | 0.00 | 0.00 | 84 | 1030.2 |
| 20260509152016 | 48 | 0 | 0.0 | 0.0 | 0.00 | 0.00 | 0.00 | 84 | 1030.1 |
| 20260509151527 | 48 | 0 | 0.0 | 0.0 | 0.00 | 0.00 | 0.00 | 84 | 1030.3 |
| 20260509151010 | 48 | 0 | 0.0 | 0.0 | 0.00 | 0.00 | 0.00 | 84 | 1030.3 |
| 20260509150511 | 49 | 0 | 0.0 | 0.0 | 0.00 | 0.00 | 0.00 | 84 | 1030.2 |
| 20260509150028 | 49 | 0 | 0.0 | 0.0 | 0.00 | 0.00 | 0.00 | 84 | 1030.2 |
| 20260509145510 | 49 | 0 | 0.0 | 0.0 | 0.00 | 0.00 | 0.00 | 84 | 1030.3 |